{"data":{"norad_id":49453,"intl_designator":"2021-104AX","name":"STARLINK-3129","alt_names":[],"object_type":"PAYLOAD","status":"ACTIVE","operator":null,"country":"US","launch_date":"2021-11-13","launch_site_code":"AFETR","launch_vehicle":null,"mission":null,"orbit_class":"UNKNOWN","rcs_meters":null,"size_class":null,"mass_kg":null,"dimensions":null,"purposes":["comms"],"wikipedia_slug":null,"has_3d_model":false,"image_url":null,"decayed_at":null,"tle_current":{"epoch":"2026-09-20T01:37:10.077600Z","epoch_age_seconds":82629,"freshness":"FRESH","line1":"1 49453U 21104AX  26263.06747775 -.00000057  00000+0  99231-5 0  9996","line2":"2 49453  53.1616  50.9422 0001090  98.6801 261.4324 15.31698463268333","mean_motion":15.31698463,"eccentricity":0.000109,"inclination_deg":53.1616,"raan_deg":50.9422,"arg_perigee_deg":98.6801,"mean_anomaly_deg":261.4324,"bstar":9.9231e-6,"rev_number":26833,"period_min":94.013282299677,"perigee_km":469.99804885461,"apogee_km":471.49110503839,"semimajor_km":6848.8815769465,"source":"CELESTRAK","updated_at":"2026-09-20T09:00:39.401097Z"}}}